User: anonymous   Login
Location: Unspecified
(0.0000°N, 0.0000°E)
Time: 15:06:22
(UTC+00:00)
Language:

COSMOS 2488 - Orbit

View from above orbital plane
View from above orbital plane
View from above satellite
View from above satellite

Ground track
Ground track

The orbit data is extracted from the following two-line orbital elements,

1 39483U 13076A   18260.71924836  .00000039  00000-0  21198-3 0  9997
2 39483  82.4857 132.0381 0019252 139.9457 220.3046 12.42887473214592
Epoch (UTC): 17 September 2018 17:15:43
Eccentricity: 0.0019252
inclination: 82.4857°
perigee height: 1479 km
apogee height: 1509 km
right ascension of ascending node: 132.0381°
argument of perigee: 139.9457°
revolutions per day: 12.42887473
mean anomaly at epoch: 220.3046°
orbit number at epoch: 21459

The dashed part of the orbit path shows where the satellite is in the earth's shadow,  

DLR